Regional Weather Roundup
Issued by NWS

Home | Current Version | Previous Version | Text Only | Print | Product List | Glossary On
Versions: 1 2 3 4 5 6 7 8 9 10 11 12 13 14 15 16 17 18 19 20 21 22 23 24 25 26 27 28 29 30 31 32 33 34 35 36 37 38 39 40 41 42 43 44 45 46 47 48 49 50
000
ASUS43 KMKX 280321
RWRWI

WISCONSIN REGIONAL WEATHER ROUNDUP
NATIONAL WEATHER SERVICE MILWAUKEE/SULLIVAN WI
1000 PM CDT THU JUL 27 2017

NOTE: "FAIR" INDICATES FEW OR NO CLOUDS BELOW 12,000 FEET WITH NO
SIGNIFICANT WEATHER AND/OR OBSTRUCTIONS TO VISIBILITY.

WIZ001-002-006>008-014>016-023>028-280400-
NORTHWEST WISCONSIN

CITY           SKY/WX    TMP DP  RH WIND       PRES   REMARKS
SUPERIOR ARPT  NOT AVBL
ASHLAND        MOCLDY    61  58  90 NE5       30.08R
HAYWARD        CLEAR     63  57  81 CALM      30.07F
SIREN          CLEAR     65  58  78 CALM      30.08R
CUMBERLAND     CLEAR     68  59  73 N6        30.08R
RICE LAKE      CLEAR     67  59  75 N7        30.07R
CHETEK         CLEAR     72  60  67 MISG      30.05R
LADYSMITH      CLOUDY    70  60  70 N7        30.08R
EAU CLAIRE     PTCLDY    70  62  76 N5        30.02R
MENOMONIE      CLEAR     69  62  77 N6        30.04R
NEW RICHMOND   CLEAR     67  61  80 CALM      30.06R
OSCEOLA        CLEAR     67  62  81 CALM      30.07R
$$

WIZ003>005-009-010-017-018-280400-
NORTH CENTRAL WISCONSIN

CITY           SKY/WX    TMP DP  RH WIND       PRES   REMARKS
MANITOWISH WTR CLEAR     59  59 100 CALM      30.09S
ARBOR VITAE    CLEAR     65  56  73 CALM      30.08S
WOODRUFF       CLEAR     65  56  73 CALM      30.08S
RHINELANDER    CLOUDY    67  57  70 E3        30.09R
EAGLE RIVER    CLEAR     62  51  68 CALM      30.09R
LAND O LAKES   CLEAR     56  55  95 CALM      30.11R
PHILLIPS       CLEAR     63  60  92 N3        30.07S
TOMAHAWK         N/A     62  58  85 CALM      30.08R
MEDFORD        PTCLDY    65  60  85 N6        30.06R
MERRILL        MOCLDY    66  63  88 CALM      30.07R
$$

WIZ029-030-035-036-043>047-280400-
CENTRAL WISCONSIN

CITY           SKY/WX    TMP DP  RH WIND       PRES   REMARKS
WAUSAU         PTCLDY    68  61  78 CALM      30.03R
MOSINEE        MOCLDY    64  61  88 NE3       30.05R
MARSHFIELD     MOCLDY    71  60  68 NE6       30.03R
STEVENS POINT  MOCLDY    66  63  90 CALM      30.04R
WAUPACA        CLEAR     70  61  73 NE3       30.02S
WAUTOMA        PTCLDY    66  61  84 CALM      30.02R
WISC RAPIDS    PTCLDY    68  61  78 CALM      30.03R
CAMP DOUGLAS   CLEAR     65  64  96 CALM      30.01R
$$

WIZ011>013-019>022-031-037>040-048>050-280400-
NORTHEAST WISCONSIN

CITY           SKY/WX    TMP DP  RH WIND       PRES   REMARKS
ANTIGO         CLOUDY    65  59  81 E3        30.07S
SHAWANO        CLOUDY    70  58  66 E6        30.04R
OCONTO         MOCLDY    67  57  68 N3        30.03R
STURGEON BAY     N/A     65  54  67 N7        30.03S
GREEN BAY      PTCLDY    68  59  73 E6        30.02R
MANITOWOC      PTCLDY    66  59  78 N3        30.02R
APPLETON       MOCLDY    72  55  56 E8        30.01R
CLINTONVILLE   CLOUDY   N/A N/A N/A E6        30.03S
OSHKOSH        CLEAR     72  58  61 E6        30.01R
$$

WIZ032>034-041-042-053>061-280400-
SOUTHWEST WISCONSIN

CITY           SKY/WX    TMP DP  RH WIND       PRES   REMARKS
LA CROSSE      MOCLDY    78  63  59 N6        29.99R HX  80
SPARTA         PTCLDY    65  63  93 CALM      30.02R
VIROQUA        CLEAR     68  65  89 E3        30.03R
BOSCOBEL       PTCLDY    70  66  87 CALM      29.99R
PRAIRIE DU CHI MOCLDY    70  65  83 CALM      29.99R
PLATTEVILLE    CLEAR     71  66  85 NE6       30.00S
$$

WIZ056-057-062-063-064-067-068-280400-
SOUTH CENTRAL WISCONSIN

CITY           SKY/WX    TMP DP  RH WIND       PRES   REMARKS
REEDSBURG      CLEAR     66  64  93 CALM      30.01R
BARABOO/DELLS  CLEAR     65  61  85 E3        30.01R
LONE ROCK      CLEAR     70  66  87 CALM      29.99R
MINERAL POINT  CLEAR     70  66  88 E3        30.01R
MADISON        PTCLDY    68  57  68 CALM      29.99S
MIDDLETON      CLEAR     65  60  85 CALM      30.01S
WATERTOWN      CLEAR     66  59  76 NE5       30.00R
MONROE         CLEAR     68  57  68 NE6       30.00S
JANESVILLE     CLEAR     70  54  56 NE6       29.98S
$$

WIZ051-052-058>065-066-070>072-280400-
SOUTHEAST WISCONSIN

CITY           SKY/WX    TMP DP  RH WIND       PRES   REMARKS
MILWAUKEE      PTCLDY    70  61  73 N13       29.97R
WAUKESHA       NOT AVBL
MILWAUKEE/TIMM PTCLDY    70  50  49 NE9       29.99S
RACINE         CLEAR     69  62  78 N12       29.98S
KENOSHA        CLEAR     68  58  70 N8        29.97S
FOND DU LAC    PTCLDY    70  56  61 E6        30.01R
SHEBOYGAN      PTCLDY    65  60  84 N6        30.00S
WEST BEND      PTCLDY    64  59  82 N6        30.00S
JUNEAU         PTCLDY    67  58  73 NE3       30.02R
$$

LSZ147-162-280400-
LAKE SUPERIOR

STATION/POSITION TIME  TEMP    WIND        PRES    WAVE
                       AIR SEA DIR/SP/G            HT/PER
                 (UTC) (F)     (DEG/KT/KT) (MB)    (FT/S)
W MID LAKE BUOY  0250   57 55  340/  6/  6 1018.3R   0
DEVILS ISLAND    0300   62      60/  5/  6 1018.6R
PORT WING        0252   64     100/  2/ 14 1018.6R
SAXON HARBOR     0230   64     310/  5/  6 1017.3S
$$

LMZ867-665-643>646-280400-
LAKE MICHIGAN

STATION/POSITION TIME  TEMP    WIND        PRES    WAVE
                       AIR SEA DIR/SP/G            HT/PER
                 (UTC) (F)     (DEG/KT/KT) (MB)    (FT/S)
CHAMBERS ISLAND  0240   69      10/ 15/ 17 1016.3R
S GREEN BAY BUOY 0300   71 72   70/ 17/ 21 1016.2
N MID LAKE BUOY  0250   66 66   20/ 16/ 17 1016.8R   2/ 3
NORTHPORT PIER   0240   67     360/  9/ 11 1016.6R
KEWAUNEE LAKESHO 0254   68      40/  8/ 12 1015.7R
SHEBOYGAN LAKESH 0300   69      10/ 14/ 15 1015.4R
PORT WASHINGTON  0240   71     350/  6/ 14 1016.3R
ATWATER BUOY     0209   70 69   10/ 14/ 17 1015.0R
MILWAUKEE LAKESH 0300   70     360/ 12/ 15   N/A
S MID LAKE BUOY  0250   72 71   20/ 17/ 21 1013.2R   5/ 6
KENOSHA   LAKESH 0300   71      10/ 16/ 19 1014.2
$$

TC  - TEMPERATURE IN CELSIUS
VSB - VISIBILITY IN STATUTE MILES
WCI - WIND CHILL INDEX
HX  - HEAT INDEX





USA.gov is the U.S. government's official web portal to all federal, state and local government web resources and services.